Theta_e
322 326 327 327 328 328 329 330 329 329 329 329 329 329 329 329 328 327 326 326 328 328 326 325 326 326 324 323 328 329 328 329 328 330 331 331 331 329 329 329 325 327 327 328
326 328 326 327 327 328 329 330 329 329 329 330 330 330 329 327 326 327 326 326 328 329 327 326 327 326 324 324 326 328 328 329 330 332 333 332 331 330 329 330 329 329 328 328
326 327 326 326 327 329 329 329 329 329 329 330 329 329 327 327 327 326 326 327 328 329 328 328 328 327 325 323 326 327 328 331 333 333 333 333 333 332 333 331 330 330 329 329
325 326 327 326 328 328 330 328 328 328 329 330 328 329 328 327 326 326 326 327 328 329 329 328 329 328 325 323 326 327 329 332 333 332 331 333 334 334 333 333 331 330 330 330
323 325 327 327 327 328 328 327 327 328 329 329 328 329 328 327 326 325 325 326 328 330 329 329 329 327 324 322 326 328 329 331 333 332 331 331 333 333 334 332 330 330 330 330
322 325 326 327 327 328 327 327 326 327 328 330 328 329 328 326 325 324 325 326 330 330 329 329 327 326 324 322 326 327 329 329 332 332 331 332 332 332 331 328 328 329 329 330
322 324 326 327 328 327 325 326 328 331 332 331 328 328 328 325 324 324 326 327 331 330 329 329 329 327 324 323 325 328 327 327 328 331 330 331 331 332 332 332 328 329 329 329
324 325 326 327 328 327 325 326 328 331 332 331 329 329 328 325 324 325 326 330 332 330 329 329 329 326 324 324 324 326 326 326 327 328 330 329 330 332 331 327 326 327 329 331
325 326 325 327 327 326 326 327 326 329 328 329 329 329 327 324 325 327 329 332 333 331 329 329 328 326 323 323 324 326 326 325 326 326 329 328 329 331 334 333 328 329 331 330
326 327 326 326 326 326 326 326 328 328 331 333 330 329 327 326 326 332 333 334 332 330 329 329 328 327 322 323 325 326 326 324 324 325 326 326 327 330 330 329 330 331 328 331
324 328 327 327 328 326 325 326 328 329 328 330 332 329 328 327 327 330 334 334 331 330 329 328 328 326 322 322 325 326 326 322 323 324 325 324 325 328 328 329 330 329 330 328
325 328 330 328 327 327 326 325 328 329 331 329 330 330 327 326 326 330 333 334 330 329 328 328 328 326 322 323 324 326 326 322 321 322 323 323 324 326 328 329 330 331 331 328
327 328 332 330 328 327 327 325 326 329 331 331 330 330 327 328 328 329 332 333 330 329 329 329 328 326 322 323 324 325 326 323 320 320 323 323 323 325 326 327 326 331 331 331
329 330 330 331 331 327 327 325 326 328 332 330 330 329 329 328 328 331 331 333 331 329 329 329 328 326 322 323 323 324 325 323 320 319 320 323 322 323 326 326 324 326 328 330
331 333 328 327 326 326 327 326 325 327 328 330 330 329 329 328 328 329 332 333 332 330 329 329 329 326 322 324 323 323 325 323 318 319 319 322 322 322 326 326 325 323 322 324
332 333 328 327 325 326 327 327 326 325 326 327 328 329 328 327 327 329 333 333 333 331 329 329 329 326 323 323 323 323 324 322 319 319 319 320 321 321 322 325 325 324 323 321
328 330 331 328 325 324 327 327 326 326 324 326 328 328 328 327 327 328 331 332 333 332 330 330 330 328 323 323 323 323 324 322 320 320 320 318 321 321 321 322 322 323 323 323
333 334 328 330 327 329 325 325 325 326 326 326 327 327 328 327 327 328 328 332 332 332 330 330 330 328 323 322 323 324 324 322 321 321 321 318 318 321 321 321 322 324 326 323
331 335 328 331 331 326 325 324 325 325 326 327 327 327 327 327 327 328 327 332 332 333 332 330 329 328 324 323 323 324 324 323 321 321 321 319 316 319 321 322 324 326 327 326
326 333 334 329 331 328 326 325 325 326 327 327 326 327 327 327 327 328 329 330 332 332 332 330 329 329 326 324 323 324 324 323 322 321 321 320 317 318 320 322 325 326 327 327
328 331 332 327 331 326 325 327 326 328 328 330 327 327 328 328 327 328 329 330 332 332 333 331 329 331 329 326 325 324 324 324 322 321 321 321 318 318 319 322 324 324 324 323
324 331 330 329 327 328 327 327 328 329 329 329 327 327 328 328 328 328 331 333 333 332 333 332 330 330 330 327 325 325 325 324 323 321 321 321 320 318 320 321 323 323 322 322
326 325 328 328 327 329 328 328 332 330 330 330 331 329 328 329 330 329 331 332 333 333 333 332 332 331 331 329 326 327 326 324 323 322 321 321 321 319 320 323 323 322 321 320
323 324 327 329 331 330 329 329 330 329 329 329 329 331 331 331 331 331 333 333 333 333 334 332 332 332 332 331 328 327 326 324 323 323 321 322 322 319 321 322 323 320 320 319
322 322 324 326 325 327 327 328 330 329 329 332 332 331 330 331 332 332 332 332 333 334 333 332 332 333 332 332 330 328 327 325 324 325 323 323 323 320 321 321 321 319 319 319
317 321 322 326 325 325 325 325 325 329 330 330 330 329 330 330 330 331 331 332 333 333 332 333 332 331 332 332 331 329 328 326 326 327 325 323 323 322 320 321 320 319 319 318
Wind_Speed
24 18 24 32 29 24 22 20 16 12 7 14 11 17 20 20 15 18 18 13 12 14 13 17 15 12 8 5 5 2 3 5 8 10 10 7 8 4 3 4 8 10 11 11
22 27 27 27 27 28 25 20 19 15 15 10 14 19 21 20 21 18 16 13 10 13 14 15 17 14 10 7 5 2 2 4 6 7 7 6 6 6 7 8 5 2 3 5
30 26 27 26 26 26 23 20 17 17 16 11 12 23 22 15 10 13 11 6 9 14 16 16 16 15 11 8 6 3 0 2 4 5 3 5 3 3 4 7 9 6 2 5
27 28 26 27 26 24 22 18 19 16 15 13 14 16 15 16 9 10 13 11 10 14 16 16 15 15 12 9 8 5 2 2 3 8 6 5 4 6 3 4 8 7 3 4
30 27 29 25 28 25 19 17 16 13 15 18 19 11 16 10 10 6 8 12 12 14 17 17 16 17 13 10 9 6 4 4 2 5 8 9 8 7 4 3 7 11 8 4
30 28 24 26 22 18 20 16 15 11 11 15 18 15 15 9 4 4 3 5 13 14 17 17 19 17 14 12 11 8 6 4 1 4 6 7 8 9 9 6 6 8 11 7
27 32 26 18 22 22 16 13 11 12 13 13 17 11 10 14 4 5 4 3 10 13 16 17 17 16 16 14 12 9 7 6 2 3 4 6 8 10 13 9 8 9 10 12
23 26 29 21 25 23 22 20 12 15 13 13 11 7 5 4 2 3 3 2 10 13 16 17 17 17 16 15 13 9 8 7 4 4 4 6 9 13 13 12 9 8 9 11
24 27 25 25 24 25 18 21 21 20 17 11 6 7 9 6 10 8 4 4 9 14 16 17 16 17 16 16 13 10 8 7 6 5 4 5 7 10 9 9 10 9 9 10
16 18 23 27 19 27 23 20 19 14 17 16 13 10 4 10 5 8 7 7 12 16 17 16 15 17 16 16 14 11 9 8 7 6 4 5 6 8 8 8 8 7 9 12
28 18 22 26 24 26 21 20 15 15 13 11 10 8 8 6 5 2 9 11 16 17 17 16 15 18 17 16 16 13 11 9 8 7 6 5 6 8 8 9 11 11 10 12
33 13 17 29 26 25 26 26 22 10 18 12 12 3 10 7 5 5 9 13 17 17 17 16 16 18 18 17 16 14 12 11 10 9 8 7 7 8 9 10 11 10 12 12
27 17 17 22 20 24 25 23 21 19 14 15 12 12 6 10 5 7 5 13 16 17 17 16 16 15 18 19 17 16 14 12 11 11 10 8 9 8 10 9 12 11 11 11
23 20 26 20 25 22 25 25 25 22 16 16 16 15 13 13 12 10 6 13 17 17 18 16 15 15 19 20 18 17 15 13 12 12 12 10 11 10 10 11 12 13 12 12
26 26 26 26 20 25 23 26 27 27 23 21 18 18 16 10 12 12 12 13 15 19 19 17 16 15 19 20 19 17 16 15 13 13 13 12 12 12 11 11 12 13 13 13
22 24 24 26 26 24 27 25 26 27 25 23 22 18 14 11 10 11 14 11 16 19 20 19 17 17 18 22 21 19 18 17 16 14 15 14 14 14 12 12 12 12 13 13
23 20 23 22 24 26 23 28 27 24 23 22 21 20 14 10 15 7 10 11 16 19 21 20 19 17 22 24 23 21 20 19 18 16 16 17 16 16 14 13 13 13 12 11
24 23 16 19 22 28 20 21 23 24 22 21 21 19 18 16 12 13 13 15 13 18 20 20 18 21 24 25 24 22 21 21 20 18 17 17 18 17 17 16 15 14 13 13
24 19 15 15 18 15 25 16 24 21 22 22 22 21 19 15 16 14 15 16 15 17 18 19 26 26 25 26 26 24 23 22 21 20 19 18 20 20 19 18 17 15 15 14
18 19 14 14 17 26 19 22 14 21 20 21 21 20 18 17 14 10 15 14 14 14 18 20 27 28 26 27 28 26 25 24 23 22 20 19 19 21 21 19 18 16 15 14
17 18 21 15 15 15 22 16 15 20 15 20 21 20 18 17 14 9 9 17 15 15 18 24 27 28 29 30 31 29 27 25 24 22 21 20 20 20 21 20 19 17 15 14
20 19 16 18 17 17 20 19 22 11 2 14 19 19 17 17 15 12 5 13 14 16 18 24 24 27 29 31 30 30 27 27 25 23 22 22 20 20 21 21 20 19 17 15
21 19 15 17 13 8 13 13 17 9 9 8 12 13 17 17 15 13 11 10 13 17 16 23 23 26 28 31 32 29 29 30 27 25 24 24 22 20 21 22 21 20 19 18
16 22 13 15 12 12 9 10 14 12 10 10 9 9 12 13 12 14 11 11 13 17 17 19 23 23 26 32 34 31 29 30 29 27 25 25 24 23 22 21 21 21 21 20
11 10 10 14 7 16 12 13 7 12 10 8 5 7 11 10 13 12 12 13 14 15 19 20 21 23 27 30 32 32 31 32 29 28 27 25 26 25 23 24 24 23 23 23
9 13 8 8 8 6 8 9 5 7 10 6 9 9 10 12 11 11 11 13 13 15 20 19 19 20 25 29 31 33 34 34 30 28 29 30 29 28 25 24 23 24 21 25
Wind_Direction
209 216 210 213 222 227 247 262 270 275 279 250 259 273 282 288 278 269 269 236 229 207 191 187 192 187 187 205 218 246 324 320 333 322 345 358 356 15 323 290 275 271 264 245
207 222 218 218 223 232 243 255 261 260 270 272 282 285 284 288 271 278 267 234 213 196 188 178 186 189 190 194 198 200 305 333 334 351 351 1 355 31 30 20 14 309 170 208
216 213 221 222 225 226 229 242 251 259 275 257 282 269 264 265 268 263 253 240 208 195 188 181 183 189 185 190 182 167 86 23 2 354 12 16 313 286 320 358 34 25 192 156
220 227 213 223 224 226 234 227 247 266 272 264 268 291 293 276 273 267 223 206 224 183 182 181 183 185 185 179 170 157 135 77 63 10 12 346 339 326 351 1 9 1 81 126
221 220 221 213 225 223 236 241 248 234 254 269 264 265 279 264 249 268 239 209 179 174 181 180 182 179 181 169 167 164 151 112 71 41 18 18 14 11 357 43 21 20 64 91
231 214 224 225 214 219 233 227 252 262 256 256 257 258 267 279 100 303 271 106 152 171 173 174 176 174 172 174 167 168 155 133 128 47 34 28 26 14 25 58 43 40 48 54
215 228 212 211 210 216 213 213 223 228 232 248 247 240 278 296 306 291 322 149 152 165 169 170 171 175 170 174 169 173 165 146 155 79 50 24 22 33 48 67 79 38 46 47
209 213 212 195 212 204 200 211 224 215 233 249 139 236 276 215 26 263 269 329 133 164 168 170 174 174 174 173 174 177 168 159 158 100 76 47 31 61 66 80 79 52 60 53
203 217 204 200 204 220 190 216 224 259 286 291 236 235 191 193 228 200 148 167 155 166 164 171 171 173 176 173 176 176 162 159 160 127 106 74 60 66 69 80 79 68 55 63
209 212 219 193 203 220 212 201 219 230 247 261 241 237 236 178 190 105 149 169 157 163 166 171 170 172 176 176 173 179 173 170 164 141 133 111 82 78 82 66 70 77 60 72
232 212 198 188 197 205 205 226 206 245 223 235 248 266 106 139 134 346 145 160 165 168 169 171 171 171 176 175 176 181 184 166 166 148 139 126 103 97 89 77 70 88 87 74
217 215 226 202 196 213 212 211 208 214 222 251 270 240 106 175 216 177 153 161 168 172 171 169 171 171 175 177 172 179 185 174 174 161 148 133 122 108 98 91 88 91 96 78
204 211 219 195 205 201 224 211 216 223 243 231 224 243 203 150 171 189 191 164 171 175 172 169 172 174 177 180 178 177 183 180 175 165 154 141 135 117 110 96 99 110 108 114
202 210 212 209 200 190 208 222 206 217 216 231 238 256 151 182 193 177 203 160 176 180 175 173 177 178 179 181 183 178 183 176 177 170 161 150 144 131 129 122 112 111 115 117
193 218 211 228 207 197 205 213 218 214 218 222 228 235 251 233 193 200 168 164 185 186 179 176 182 179 182 180 184 183 180 172 178 172 162 161 153 144 141 133 126 115 116 114
189 215 215 218 228 206 205 212 221 223 221 223 232 242 230 208 235 187 161 177 189 192 183 181 183 182 184 181 185 182 179 172 177 175 164 170 163 157 150 144 136 130 126 123
187 205 212 223 214 228 220 208 213 221 225 222 222 228 236 214 212 209 174 180 195 193 189 187 186 184 185 182 187 180 180 175 179 180 167 171 171 164 160 154 147 138 133 133
190 204 197 210 216 215 225 215 219 218 221 218 230 225 223 235 233 196 222 184 202 193 196 191 184 184 185 182 185 182 181 180 182 185 175 173 177 171 168 165 155 150 148 142
191 194 208 210 210 216 218 223 215 215 221 212 219 224 235 229 224 217 213 179 188 196 197 191 185 184 182 183 182 183 185 184 187 188 182 178 178 177 174 172 165 163 163 160
209 204 221 206 210 213 212 200 224 208 226 208 214 222 220 224 224 212 199 201 180 187 194 191 183 182 182 185 182 185 190 188 191 190 186 182 180 179 180 177 173 173 173 173
198 202 208 213 216 218 207 168 187 211 228 210 212 217 216 218 227 220 233 191 183 188 185 185 182 183 182 184 180 189 192 194 193 190 186 183 181 180 181 176 177 179 185 181
198 200 205 211 201 215 200 174 184 209 245 182 198 204 209 215 226 230 193 164 185 187 180 178 184 186 183 188 186 189 193 195 193 190 186 183 180 182 180 179 181 185 189 186
205 205 205 211 205 207 202 211 163 180 159 162 177 189 198 210 217 205 197 208 193 189 182 182 185 186 185 192 193 195 192 191 193 191 186 181 180 187 179 181 183 186 188 191
252 202 211 210 172 151 163 176 173 208 196 196 204 180 199 200 188 200 169 194 193 185 183 186 185 186 189 197 200 200 191 193 191 192 186 181 182 187 181 186 187 191 188 194
246 329 214 198 200 169 164 186 170 193 210 99 263 203 170 188 185 190 183 199 195 183 179 183 189 192 196 198 203 200 196 193 194 189 185 185 187 188 184 192 189 195 192 195
274 264 249 196 159 233 171 183 215 205 219 205 228 216 184 186 181 187 188 185 196 202 191 185 191 200 199 197 202 203 200 193 192 189 188 189 190 186 193 196 195 203 201 201